,,Stat6,,Stat2,,Stat8,,Stat9,,Stat10,,Wind1,,Wind1,
time,status,PA1M_AVG,status,PR1M_SUM,status,RH1M_AVG,status,SR1M_AVG,status,TA1M_AVG,status,W1dAve1m,status,W1sAve1m,
2007-10-29, 07:00:02,VALID,915.56,VALID,0,VALID,100,VALID,46.8501,VALID,19.3866,VALID,178,VALID,0.147135,
2007-10-29, 07:01:00,VALID,915.559,VALID,0,VALID,100,VALID,47.869,VALID,19.4091,VALID,178,VALID,0.255814,
2007-10-29, 07:02:00,VALID,915.56,VALID,0,VALID,100,VALID,48.9727,VALID,19.4165,VALID,178,VALID,0.315278,
2007-10-29, 07:03:00,VALID,915.564,VALID,0,VALID,100,VALID,50.0425,VALID,19.4258,VALID,178,VALID,0.478161,
2007-10-29, 07:04:00,VALID,915.582,VALID,0,VALID,100,VALID,51.1972,VALID,19.445,VALID,178,VALID,0.343564,
2007-10-29, 07:05:00,VALID,915.591,VALID,0,VALID,100,VALID,52.3349,VALID,19.4752,VALID,178,VALID,0.461846,
2007-10-29, 07:06:00,VALID,915.579,VALID,0,VALID,100,VALID,53.5915,VALID,19.4904,VALID,178,VALID,0.334339,
2007-10-29, 07:07:00,VALID,915.593,VALID,0,VALID,100,VALID,54.8311,VALID,19.5199,VALID,178,VALID,0.317224,
2007-10-29, 07:08:00,VALID,915.599,VALID,0,VALID,100,VALID,56.1726,VALID,19.5331,VALID,178,VALID,0.475818,
2007-10-29, 07:09:00,VALID,915.622,VALID,0,VALID,100,VALID,57.4801,VALID,19.5558,VALID,178,VALID,0.0507813,
2007-10-29, 07:10:00,VALID,915.63,VALID,0,VALID,100,VALID,52.3179,VALID,19.5625,VALID,178,VALID,0.046875,
2007-10-29, 07:11:00,VALID,915.65,VALID,0,VALID,100,VALID,60.231,VALID,19.5753,VALID,178,VALID,0,
2007-10-29, 07:12:00,VALID,915.674,VALID,0,VALID,100,VALID,61.6234,VALID,19.5818,VALID,178,VALID,0,
2007-10-29, 07:13:00,VALID,915.69,VALID,0,VALID,100,VALID,63.0328,VALID,19.5977,VALID,178,VALID,0,
2007-10-29, 07:14:00,VALID,915.703,VALID,0,VALID,100,VALID,64.5272,VALID,19.6107,VALID,178,VALID,0,
2007-10-29, 07:15:00,VALID,915.68,VALID,0,VALID,100,VALID,66.1064,VALID,19.6439,VALID,178,VALID,0.246189,
2007-10-29, 07:16:00,VALID,915.689,VALID,0,VALID,100,VALID,67.7875,VALID,19.6594,VALID,178,VALID,0.26508,
2007-10-29, 07:17:00,VALID,915.692,VALID,0,VALID,100,VALID,69.4516,VALID,19.6828,VALID,178,VALID,0.469122,
2007-10-29, 07:18:00,VALID,915.702,VALID,0,VALID,100,VALID,71.2346,VALID,19.7088,VALID,178,VALID,0.171131,
2007-10-29, 07:19:00,VALID,915.717,VALID,0,VALID,100,VALID,72.9836,VALID,19.7215,VALID,188,VALID,0.0377604,
2007-10-29, 07:20:00,VALID,915.716,VALID,0,VALID,100,VALID,74.9024,VALID,19.751,VALID,195,VALID,0.386052,
2007-10-29, 07:21:00,VALID,915.733,VALID,0,VALID,100,VALID,76.8552,VALID,19.7672,VALID,197,VALID,0.389737,
2007-10-29, 07:22:00,VALID,915.742,VALID,0,VALID,100,VALID,78.9609,VALID,19.7784,VALID,184,VALID,0.336115,
2007-10-29, 07:23:00,VALID,915.749,VALID,0,VALID,100,VALID,81.1174,VALID,19.8009,VALID,183,VALID,0,
2007-10-29, 07:24:00,VALID,915.756,VALID,0,VALID,100,VALID,83.274,VALID,19.85,VALID,183,VALID,0.00090843,
2007-10-29, 07:25:00,VALID,915.746,VALID,0,VALID,100,VALID,85.6004,VALID,19.8885,VALID,183,VALID,0.0790777,
2007-10-29, 07:26:00,VALID,915.759,VALID,0,VALID,99.9682,VALID,88.0286,VALID,19.9142,VALID,183,VALID,0.00669643,
2007-10-29, 07:27:00,VALID,915.772,VALID,0,VALID,99.8095,VALID,90.4569,VALID,19.9668,VALID,183,VALID,0,
2007-10-29, 07:28:00,VALID,915.779,VALID,0,VALID,99.6607,VALID,92.9361,VALID,19.9993,VALID,183,VALID,0,
2007-10-29, 07:29:00,VALID,915.791,VALID,0,VALID,99.4166,VALID,95.4492,VALID,20.022,VALID,183,VALID,0,
2007-10-29, 07:30:00,VALID,915.796,VALID,0,VALID,99.5209,VALID,97.9285,VALID,20.0574,VALID,183,VALID,0,
2007-10-29, 07:31:00,VALID,915.81,VALID,0,VALID,99.2894,VALID,100.34,VALID,20.1031,VALID,183,VALID,0,
2007-10-29, 07:32:00,VALID,915.84,VALID,0,VALID,99.0644,VALID,102.734,VALID,20.1291,VALID,183,VALID,0.105196,
2007-10-29, 07:33:00,VALID,915.836,VALID,0,VALID,99.0008,VALID,95.3134,VALID,20.168,VALID,183,VALID,0.0143532,
2007-10-29, 07:34:00,VALID,915.839,VALID,0,VALID,98.9575,VALID,43.6407,VALID,20.2199,VALID,183,VALID,0.0754573,
2007-10-29, 07:35:00,VALID,915.855,VALID,0,VALID,98.7439,VALID,109.374,VALID,20.2591,VALID,183,VALID,0.142113,
2007-10-29, 07:36:00,VALID,915.873,VALID,0,VALID,98.5188,VALID,111.462,VALID,20.2883,VALID,183,VALID,0,
2007-10-29, 07:37:00,VALID,915.899,VALID,0,VALID,98.5519,VALID,113.398,VALID,20.3216,VALID,183,VALID,0,
2007-10-29, 07:38:00,VALID,915.936,VALID,0,VALID,98.6218,VALID,115.368,VALID,20.354,VALID,155,VALID,0.110518,
2007-10-29, 07:39:00,VALID,915.948,VALID,0,VALID,98.4476,VALID,117.304,VALID,20.3702,VALID,114,VALID,0.66847,
2007-10-29, 07:40:00,VALID,915.955,VALID,0,VALID,98.3243,VALID,119.154,VALID,20.3637,VALID,110,VALID,0.98266,
2007-10-29, 07:41:00,VALID,915.986,VALID,0,VALID,98.0344,VALID,76.8892,VALID,20.3313,VALID,111,VALID,1.05208,
2007-10-29, 07:42:00,VALID,916.017,VALID,0,VALID,98.2543,VALID,31.3636,VALID,20.3415,VALID,113,VALID,1.03277,
2007-10-29, 07:43:00,VALID,916.025,VALID,0,VALID,98.4959,VALID,80.8797,VALID,20.3645,VALID,113,VALID,0.816612,
2007-10-29, 07:44:00,VALID,916.042,VALID,0,VALID,98.4972,VALID,126.49,VALID,20.3807,VALID,111,VALID,0.877096,
2007-10-29, 07:45:00,VALID,916.048,VALID,0,VALID,98.6346,VALID,128.579,VALID,20.3805,VALID,110,VALID,1.0321,
2007-10-29, 07:46:00,VALID,916.044,VALID,0,VALID,98.501,VALID,130.667,VALID,20.3902,VALID,129,VALID,0.868676,
2007-10-29, 07:47:00,VALID,916.039,VALID,0,VALID,97.8729,VALID,132.739,VALID,20.3473,VALID,142,VALID,1.23783,
2007-10-29, 07:48:00,VALID,916.03,VALID,0,VALID,98.3497,VALID,135.032,VALID,20.3772,VALID,126,VALID,0.756324,
2007-10-29, 07:49:00,VALID,916.018,VALID,0,VALID,98.3548,VALID,137.358,VALID,20.4159,VALID,134,VALID,0.827344,
2007-10-29, 07:50:00,VALID,916.005,VALID,0,VALID,98.3179,VALID,139.769,VALID,20.4259,VALID,130,VALID,0.797061,
2007-10-29, 07:51:00,VALID,915.995,VALID,0,VALID,98.426,VALID,142.197,VALID,20.4521,VALID,105,VALID,1.08931,
2007-10-29, 07:52:00,VALID,915.999,VALID,0,VALID,98.3726,VALID,144.694,VALID,20.4619,VALID,140,VALID,0.724927,
2007-10-29, 07:53:00,VALID,916.006,VALID,0,VALID,98.468,VALID,147.36,VALID,20.4876,VALID,118,VALID,0.358594,
2007-10-29, 07:54:00,VALID,915.99,VALID,0,VALID,98.2556,VALID,149.992,VALID,20.527,VALID,111,VALID,0.274346,
2007-10-29, 07:55:00,VALID,915.995,VALID,0,VALID,98.4387,VALID,152.522,VALID,20.5687,VALID,83,VALID,0.478693,
2007-10-29, 07:56:00,VALID,916.007,VALID,0,VALID,98.2594,VALID,155.307,VALID,20.6341,VALID,95,VALID,0.197621,
2007-10-29, 07:57:00,VALID,916.015,VALID,0,VALID,98.3739,VALID,158.092,VALID,20.7145,VALID,95,VALID,0,
2007-10-29, 07:58:00,VALID,916.016,VALID,0,VALID,97.8029,VALID,160.91,VALID,20.7737,VALID,95,VALID,0.23952,
2007-10-29, 07:59:00,VALID,916.019,VALID,0,VALID,97.5944,VALID,163.814,VALID,20.7897,VALID,87,VALID,0.237305,
2007-10-29, 08:00:00,VALID,916.04,VALID,0,VALID,97.5435,VALID,166.735,VALID,20.8546,VALID,81,VALID,0.335938,
2007-10-29, 08:01:00,VALID,916.054,VALID,0,VALID,97.1773,VALID,169.706,VALID,20.8903,VALID,81,VALID,0.406994,
2007-10-29, 08:02:00,VALID,916.063,VALID,0,VALID,97.1137,VALID,172.933,VALID,20.9649,VALID,81,VALID,0.244673,
2007-10-29, 08:03:00,VALID,916.095,VALID,0,VALID,97.1391,VALID,176.261,VALID,21.0555,VALID,81,VALID,0.135243,
2007-10-29, 08:04:00,VALID,916.111,VALID,0,VALID,97.0768,VALID,179.708,VALID,21.1562,VALID,70,VALID,0.605168,
2007-10-29, 08:05:00,VALID,916.112,VALID,0,VALID,96.628,VALID,183.546,VALID,21.2049,VALID,66,VALID,0.680556,
2007-10-29, 08:06:00,VALID,916.094,VALID,0,VALID,95.4314,VALID,187.927,VALID,21.1792,VALID,90,VALID,1.00781,
2007-10-29, 08:07:00,VALID,916.117,VALID,0,VALID,94.6163,VALID,192.715,VALID,21.111,VALID,105,VALID,0.809775,
2007-10-29, 08:08:00,VALID,916.115,VALID,0,VALID,94.6735,VALID,197.657,VALID,21.1113,VALID,117,VALID,0.647892,
2007-10-29, 08:09:00,VALID,916.091,VALID,0,VALID,94.5057,VALID,203.057,VALID,21.147,VALID,126,VALID,1.00856,
2007-10-29, 08:10:00,VALID,916.096,VALID,0,VALID,94.011,VALID,209.442,VALID,21.1175,VALID,128,VALID,0.87936,
2007-10-29, 08:11:00,VALID,916.121,VALID,0,VALID,94.3785,VALID,192.512,VALID,21.1432,VALID,117,VALID,0.787972,
2007-10-29, 08:12:00,VALID,916.111,VALID,0,VALID,94.8553,VALID,125.437,VALID,21.2046,VALID,121,VALID,0.980469,
2007-10-29, 08:13:00,VALID,916.123,VALID,0,VALID,95.1249,VALID,223.943,VALID,21.2765,VALID,102,VALID,1.00566,
2007-10-29, 08:14:00,VALID,916.135,VALID,0,VALID,95.083,VALID,220.598,VALID,21.3415,VALID,70,VALID,1.01732,
2007-10-29, 08:15:00,VALID,916.136,VALID,0,VALID,94.1305,VALID,223.858,VALID,21.3739,VALID,50,VALID,0.750174,
2007-10-29, 08:16:00,VALID,916.116,VALID,0,VALID,93.7783,VALID,230.43,VALID,21.3937,VALID,50,VALID,0.114258,
2007-10-29, 08:17:00,VALID,916.122,VALID,0,VALID,93.4668,VALID,229.87,VALID,21.52,VALID,2,VALID,0.289063,
2007-10-29, 08:18:00,VALID,916.103,VALID,0,VALID,93.0637,VALID,239.65,VALID,21.5787,VALID,287,VALID,0.663876,
2007-10-29, 08:19:00,VALID,916.084,VALID,0,VALID,93.2684,VALID,244.83,VALID,21.5687,VALID,288,VALID,0.0024858,
2007-10-29, 08:20:00,VALID,916.078,VALID,0,VALID,92.9899,VALID,251.928,VALID,21.6242,VALID,357,VALID,0.175509,
2007-10-29, 08:21:00,VALID,916.081,VALID,0,VALID,92.4164,VALID,259.756,VALID,21.7216,VALID,17,VALID,0.0893674,
2007-10-29, 08:22:00,VALID,916.073,VALID,0,VALID,92.3503,VALID,263.627,VALID,21.8668,VALID,17,VALID,0.042081,
2007-10-29, 08:23:00,VALID,916.045,VALID,0,VALID,92.1328,VALID,270.012,VALID,21.9959,VALID,17,VALID,0.239844,
2007-10-29, 08:24:00,VALID,916.053,VALID,0,VALID,92.0858,VALID,270.216,VALID,22.1458,VALID,359,VALID,0.274023,
2007-10-29, 08:25:00,VALID,916.044,VALID,0,VALID,90.2229,VALID,277.908,VALID,22.1909,VALID,307,VALID,0.621466,
2007-10-29, 08:26:00,VALID,916.043,VALID,0,VALID,90.5624,VALID,202.955,VALID,22.175,VALID,307,VALID,0.273074,
2007-10-29, 08:27:00,VALID,916.05,VALID,0,VALID,91.5339,VALID,133.928,VALID,22.2662,VALID,310,VALID,0.176897,
2007-10-29, 08:28:00,VALID,916.058,VALID,0,VALID,91.806,VALID,114.672,VALID,22.3627,VALID,349,VALID,0.213118,
2007-10-29, 08:29:00,VALID,916.052,VALID,0,VALID,91.937,VALID,156.903,VALID,22.4929,VALID,14,VALID,0.290737,
2007-10-29, 08:30:00,VALID,916.047,VALID,0,VALID,91.0761,VALID,132.162,VALID,22.6228,VALID,57,VALID,0.831676,
2007-10-29, 08:31:00,VALID,916.05,VALID,0,VALID,89.348,VALID,87.3324,VALID,22.5711,VALID,64,VALID,0.735283,
2007-10-29, 08:32:00,VALID,916.047,VALID,0,VALID,89.6329,VALID,128.63,VALID,22.644,VALID,66,VALID,0.473895,
2007-10-29, 08:33:00,VALID,916.058,VALID,0,VALID,88.7618,VALID,306.249,VALID,22.7095,VALID,63,VALID,1.09375,
2007-10-29, 08:34:00,VALID,916.067,VALID,0,VALID,89.6761,VALID,334.013,VALID,22.6254,VALID,67,VALID,1.21913,
2007-10-29, 08:35:00,VALID,916.074,VALID,0,VALID,90.8689,VALID,333.877,VALID,22.5669,VALID,83,VALID,0.775799,
2007-10-29, 08:36:00,VALID,916.078,VALID,0,VALID,89.7231,VALID,333.521,VALID,22.5764,VALID,93,VALID,1.00291,
2007-10-29, 08:37:00,VALID,916.082,VALID,0,VALID,90.5001,VALID,331.822,VALID,22.7409,VALID,59,VALID,0.796354,
2007-10-29, 08:38:00,VALID,916.081,VALID,0,VALID,90.6425,VALID,161.063,VALID,22.9165,VALID,49,VALID,0.548828,
2007-10-29, 08:39:00,VALID,916.085,VALID,0,VALID,89.1255,VALID,95.5172,VALID,22.9977,VALID,66,VALID,0.401105,
2007-10-29, 08:40:00,VALID,916.075,VALID,0,VALID,88.0116,VALID,64.1536,VALID,22.9357,VALID,63,VALID,1.11623,
2007-10-29, 08:41:00,VALID,916.074,VALID,0,VALID,87.3592,VALID,61.6234,VALID,22.7609,VALID,71,VALID,1.04587,
2007-10-29, 08:42:00,VALID,916.066,VALID,0,VALID,86.3814,VALID,64.9687,VALID,22.5918,VALID,68,VALID,0.790334,
2007-10-29, 08:43:00,VALID,916.059,VALID,0,VALID,87.4508,VALID,66.446,VALID,22.6142,VALID,59,VALID,0.803819,
2007-10-29, 08:44:00,VALID,916.058,VALID,0,VALID,87.0261,VALID,43.403,VALID,22.7538,VALID,51,VALID,0.323153,
2007-10-29, 08:45:00,VALID,916.055,VALID,0,VALID,84.5846,VALID,163.746,VALID,22.7996,VALID,350,VALID,0.170703,
2007-10-29, 08:46:00,VALID,916.052,VALID,0,VALID,84.5185,VALID,181.118,VALID,22.9074,VALID,15,VALID,0.00508721,
2007-10-29, 08:47:00,VALID,916.063,VALID,0,VALID,84.4142,VALID,313.874,VALID,23.0042,VALID,57,VALID,0.0012429,
2007-10-29, 08:48:00,VALID,916.059,VALID,0,VALID,83.9628,VALID,280.167,VALID,23.0957,VALID,49,VALID,0,
2007-10-29, 08:49:00,VALID,916.055,VALID,0,VALID,82.8069,VALID,94.9738,VALID,22.939,VALID,69,VALID,0.00093006,
2007-10-29, 08:50:00,VALID,916.057,VALID,0,VALID,83.669,VALID,59.331,VALID,22.7509,VALID,70,VALID,0,
2007-10-29, 08:51:00,VALID,916.073,VALID,0,VALID,84.8415,VALID,315.334,VALID,22.709,VALID,55,VALID,0.84032,
2007-10-29, 08:52:00,VALID,916.078,VALID,0,VALID,85.3361,VALID,254.152,VALID,22.7025,VALID,35,VALID,0.761619,
2007-10-29, 08:53:00,VALID,916.071,VALID,0,VALID,84.9864,VALID,133.639,VALID,22.6927,VALID,35,VALID,0.555398,
2007-10-29, 08:54:00,VALID,916.071,VALID,0,VALID,85.3806,VALID,110.579,VALID,22.7709,VALID,57,VALID,0.184508,
2007-10-29, 08:55:00,VALID,916.06,VALID,0,VALID,85.1924,VALID,273.442,VALID,22.8876,VALID,61,VALID,0.957667,
2007-10-29, 08:56:00,VALID,916.048,VALID,0,VALID,83.8254,VALID,308.881,VALID,22.8424,VALID,69,VALID,1.2445,
2007-10-29, 08:57:00,VALID,916.034,VALID,0,VALID,84.582,VALID,310.444,VALID,22.8002,VALID,70,VALID,0.924352,
2007-10-29, 08:58:00,VALID,916.029,VALID,0,VALID,86.0635,VALID,312.906,VALID,22.9295,VALID,56,VALID,0.333112,
2007-10-29, 08:59:00,VALID,916.008,VALID,0,VALID,86.7158,VALID,315.606,VALID,23.187,VALID,64,VALID,0.46875,
2007-10-29, 09:00:00,VALID,916.008,VALID,0,VALID,85.7392,VALID,317.796,VALID,23.2959,VALID,90,VALID,0.384681,
2007-10-29, 09:01:00,VALID,916.018,VALID,0,VALID,85.0983,VALID,321.685,VALID,23.4229,VALID,351,VALID,0.433036,
2007-10-29, 09:02:00,VALID,915.998,VALID,0,VALID,84.5464,VALID,324.707,VALID,23.4392,VALID,10,VALID,0.496761,
2007-10-29, 09:03:00,VALID,915.991,VALID,0,VALID,85.4099,VALID,325.455,VALID,23.4424,VALID,358,VALID,0.352778,
2007-10-29, 09:04:00,VALID,915.988,VALID,0,VALID,83.4211,VALID,323.723,VALID,23.4849,VALID,330,VALID,0.318924,
2007-10-29, 09:05:00,VALID,915.975,VALID,0,VALID,84.9267,VALID,322.789,VALID,23.5981,VALID,67,VALID,0.461496,
2007-10-29, 09:06:00,VALID,915.986,VALID,0,VALID,83.8661,VALID,323.349,VALID,23.6409,VALID,41,VALID,0.663132,
2007-10-29, 09:07:00,VALID,915.986,VALID,0,VALID,82.9341,VALID,326.966,VALID,23.6101,VALID,35,VALID,0.763622,
2007-10-29, 09:08:00,VALID,915.992,VALID,0,VALID,83.6818,VALID,334.047,VALID,23.6034,VALID,51,VALID,0.721989,
2007-10-29, 09:09:00,VALID,916.001,VALID,0,VALID,81.6815,VALID,341.722,VALID,23.5083,VALID,47,VALID,1.1224,
2007-10-29, 09:10:00,VALID,916.005,VALID,0,VALID,81.9142,VALID,349.041,VALID,23.2711,VALID,63,VALID,1.15904,
2007-10-29, 09:11:00,VALID,916.004,VALID,0,VALID,83.9373,VALID,355.273,VALID,23.2782,VALID,43,VALID,0.91673,
2007-10-29, 09:12:00,VALID,916.005,VALID,0,VALID,83.7886,VALID,362.116,VALID,23.3931,VALID,350,VALID,0.210751,
2007-10-29, 09:13:00,VALID,916.028,VALID,0,VALID,83.2087,VALID,371.795,VALID,23.5032,VALID,14,VALID,0.355945,
2007-10-29, 09:14:00,VALID,916.039,VALID,0,VALID,82.9633,VALID,387.333,VALID,23.6553,VALID,5,VALID,0.239644,
2007-10-29, 09:15:00,VALID,916.057,VALID,0,VALID,81.6904,VALID,400.374,VALID,23.7918,VALID,14,VALID,0.350074,
2007-10-29, 09:16:00,VALID,916.067,VALID,0,VALID,82.2677,VALID,416.251,VALID,23.9158,VALID,16,VALID,0.388542,
2007-10-29, 09:17:00,VALID,916.06,VALID,0,VALID,81.0139,VALID,425.896,VALID,23.9708,VALID,343,VALID,0.701563,
2007-10-29, 09:18:00,VALID,916.068,VALID,0,VALID,81.2123,VALID,434.489,VALID,23.9675,VALID,47,VALID,0.844815,
2007-10-29, 09:19:00,VALID,916.08,VALID,0,VALID,82.1774,VALID,441.909,VALID,23.9835,VALID,51,VALID,1.02325,
2007-10-29, 09:20:00,VALID,916.078,VALID,0,VALID,81.5213,VALID,455.986,VALID,23.8343,VALID,21,VALID,0.63978,
2007-10-29, 09:21:00,VALID,916.078,VALID,0,VALID,82.9239,VALID,470.641,VALID,23.9968,VALID,69,VALID,0.718217,
2007-10-29, 09:22:00,VALID,916.092,VALID,0,VALID,83.2545,VALID,480.574,VALID,24.1885,VALID,67,VALID,1.50672,
2007-10-29, 09:23:00,VALID,916.089,VALID,0,VALID,81.7591,VALID,481.678,VALID,24.231,VALID,82,VALID,1.12437,
2007-10-29, 09:24:00,VALID,916.076,VALID,0,VALID,82.4725,VALID,486.806,VALID,24.1985,VALID,71,VALID,1.27598,
2007-10-29, 09:25:00,VALID,916.09,VALID,0,VALID,82.7001,VALID,498.812,VALID,24.2021,VALID,23,VALID,0.8125,
2007-10-29, 09:26:00,VALID,916.069,VALID,0,VALID,79.9114,VALID,513.67,VALID,24.1719,VALID,283,VALID,1.12137,
2007-10-29, 09:27:00,VALID,916.054,VALID,0,VALID,82.1228,VALID,519.359,VALID,24.1498,VALID,327,VALID,0.81871,
2007-10-29, 09:28:00,VALID,916.067,VALID,0,VALID,82.8946,VALID,521.413,VALID,24.1498,VALID,51,VALID,0.685724,
2007-10-29, 09:29:00,VALID,916.064,VALID,0,VALID,82.2843,VALID,522.364,VALID,24.2502,VALID,78,VALID,1.0467,
2007-10-29, 09:30:00,VALID,916.061,VALID,0,VALID,81.4107,VALID,527.136,VALID,24.2989,VALID,57,VALID,1.03579,
2007-10-29, 09:31:00,VALID,916.068,VALID,0,VALID,79.7868,VALID,523.332,VALID,24.1926,VALID,61,VALID,1.374,
2007-10-29, 09:32:00,VALID,916.07,VALID,0,VALID,80.6108,VALID,524.606,VALID,24.1312,VALID,62,VALID,1.65141,
2007-10-29, 09:33:00,VALID,916.078,VALID,0,VALID,80.2904,VALID,537.358,VALID,24.0009,VALID,73,VALID,1.38626,
2007-10-29, 09:34:00,VALID,916.085,VALID,0,VALID,80.7876,VALID,538.479,VALID,24.0234,VALID,72,VALID,0.958854,
2007-10-29, 09:35:00,VALID,916.099,VALID,0,VALID,81.2886,VALID,561.03,VALID,24.221,VALID,51,VALID,1.18118,
2007-10-29, 09:36:00,VALID,916.108,VALID,0,VALID,81.576,VALID,583.037,VALID,24.1338,VALID,75,VALID,1.62344,
2007-10-29, 09:37:00,VALID,916.12,VALID,0,VALID,81.9765,VALID,547.156,VALID,24.3385,VALID,56,VALID,0.87936,
2007-10-29, 09:38:00,VALID,916.108,VALID,0,VALID,80.5536,VALID,431.296,VALID,24.5072,VALID,70,VALID,1.61365,
2007-10-29, 09:39:00,VALID,916.118,VALID,0,VALID,79.5719,VALID,466.379,VALID,24.5085,VALID,67,VALID,1.3647,
2007-10-29, 09:40:00,VALID,916.122,VALID,0,VALID,78.4936,VALID,500.816,VALID,24.4366,VALID,17,VALID,0.623365,
2007-10-29, 09:41:00,VALID,916.112,VALID,0,VALID,80.0119,VALID,589.507,VALID,24.5669,VALID,75,VALID,0.836868,
2007-10-29, 09:42:00,VALID,916.124,VALID,0,VALID,80.0094,VALID,534.896,VALID,24.6937,VALID,65,VALID,1.41914,
2007-10-29, 09:43:00,VALID,916.136,VALID,0,VALID,79.3901,VALID,363.695,VALID,24.7489,VALID,63,VALID,1,
2007-10-29, 09:44:00,VALID,916.132,VALID,0,VALID,78.5902,VALID,291.272,VALID,24.8594,VALID,76,VALID,1.32656,
2007-10-29, 09:45:00,VALID,916.123,VALID,0,VALID,77.5259,VALID,301.274,VALID,24.7977,VALID,57,VALID,1.62464,
2007-10-29, 09:46:00,VALID,916.118,VALID,0,VALID,78.7543,VALID,378.69,VALID,24.5215,VALID,55,VALID,1.74543,
2007-10-29, 09:47:00,VALID,916.092,VALID,0,VALID,79.4155,VALID,310.868,VALID,24.4857,VALID,83,VALID,1.72507,
2007-10-29, 09:48:00,VALID,916.083,VALID,0,VALID,80.9147,VALID,396.995,VALID,24.3392,VALID,73,VALID,1.35494,
2007-10-29, 09:49:00,VALID,916.062,VALID,0,VALID,81.3051,VALID,463.254,VALID,24.4207,VALID,101,VALID,0.445313,
2007-10-29, 09:50:00,VALID,916.072,VALID,0,VALID,80.3794,VALID,488.997,VALID,24.6485,VALID,41,VALID,0.803199,
2007-10-29, 09:51:00,VALID,916.049,VALID,0,VALID,79.7271,VALID,441.06,VALID,24.5868,VALID,62,VALID,2.28683,
2007-10-29, 09:52:00,VALID,916.041,VALID,0,VALID,79.048,VALID,582.256,VALID,24.3297,VALID,68,VALID,2.55208,
2007-10-29, 09:53:00,VALID,916.025,VALID,0,VALID,80.8995,VALID,608.763,VALID,24.3915,VALID,65,VALID,0.965511,
2007-10-29, 09:54:00,VALID,916.005,VALID,0,VALID,79.0328,VALID,583.342,VALID,24.6222,VALID,12,VALID,0.604936,
2007-10-29, 09:55:00,VALID,916.004,VALID,0,VALID,79.1904,VALID,573.528,VALID,24.7749,VALID,62,VALID,1.60116,
2007-10-29, 09:56:00,VALID,916.007,VALID,0,VALID,79.6609,VALID,445.798,VALID,24.8861,VALID,76,VALID,1.374,
2007-10-29, 09:57:00,VALID,916.026,VALID,0,VALID,80.2878,VALID,565.19,VALID,25.0545,VALID,64,VALID,1.36365,
2007-10-29, 09:58:00,VALID,916.022,VALID,0,VALID,78.4898,VALID,423.213,VALID,25.2342,VALID,72,VALID,1.88895,
2007-10-29, 09:59:00,VALID,916.043,VALID,0,VALID,76.7693,VALID,546.851,VALID,25.0161,VALID,61,VALID,1.70126,
2007-10-29, 10:00:00,VALID,916.031,VALID,0,VALID,77.4356,VALID,624.266,VALID,24.8084,VALID,74,VALID,2.36179,
2007-10-29, 10:01:00,VALID,916.034,VALID,0,VALID,76.2708,VALID,644.083,VALID,24.8604,VALID,69,VALID,1.63709,
2007-10-29, 10:02:00,VALID,916.048,VALID,0,VALID,75.7609,VALID,385.04,VALID,24.9056,VALID,56,VALID,1.09748,
2007-10-29, 10:03:00,VALID,916.044,VALID,0,VALID,76.1488,VALID,408.966,VALID,24.7688,VALID,22,VALID,1.07386,
2007-10-29, 10:04:00,VALID,916.034,VALID,0,VALID,77.339,VALID,389.489,VALID,24.6394,VALID,57,VALID,1.95046,
2007-10-29, 10:05:00,VALID,916.055,VALID,0,VALID,78.6068,VALID,361.845,VALID,24.6199,VALID,64,VALID,1.40903,
2007-10-29, 10:06:00,VALID,916.051,VALID,0,VALID,79.2731,VALID,316.455,VALID,24.7538,VALID,51,VALID,0.97311,
2007-10-29, 10:07:00,VALID,916.01,VALID,0,VALID,77.8667,VALID,419.545,VALID,24.7448,VALID,44,VALID,1.34505,
2007-10-29, 10:08:00,VALID,916.025,VALID,0,VALID,77.8019,VALID,534.013,VALID,24.8062,VALID,40,VALID,1.68843,
2007-10-29, 10:09:00,VALID,916.023,VALID,0,VALID,78.2113,VALID,621.091,VALID,24.6343,VALID,42,VALID,1.3473,
2007-10-29, 10:10:00,VALID,915.989,VALID,0,VALID,79.1332,VALID,589.778,VALID,24.8552,VALID,5,VALID,1.4177,
2007-10-29, 10:11:00,VALID,915.973,VALID,0,VALID,78.9272,VALID,684.769,VALID,24.9466,VALID,82,VALID,1.73228,
2007-10-29, 10:12:00,VALID,915.956,VALID,0,VALID,78.3855,VALID,699.406,VALID,25.139,VALID,69,VALID,1.60974,
2007-10-29, 10:13:00,VALID,915.922,VALID,0,VALID,75.6007,VALID,724.063,VALID,25.1874,VALID,77,VALID,2.04469,
2007-10-29, 10:14:00,VALID,915.9,VALID,0,VALID,78.1223,VALID,770.25,VALID,25.19,VALID,68,VALID,1.4295,
2007-10-29, 10:15:00,VALID,915.904,VALID,0,VALID,77.6594,VALID,652.743,VALID,25.5606,VALID,73,VALID,1.24219,
2007-10-29, 10:16:00,VALID,915.901,VALID,0,VALID,74.7881,VALID,472.916,VALID,25.8824,VALID,90,VALID,0.684775,
2007-10-29, 10:17:00,VALID,915.857,VALID,0,VALID,74.1422,VALID,537.97,VALID,25.8801,VALID,85,VALID,1.41016,
2007-10-29, 10:18:00,VALID,915.858,VALID,0,VALID,75.424,VALID,542.521,VALID,25.8671,VALID,53,VALID,1.84284,
2007-10-29, 10:19:00,VALID,915.853,VALID,0,VALID,72.4064,VALID,638.038,VALID,25.8154,VALID,48,VALID,1.31938,
2007-10-29, 10:20:00,VALID,915.826,VALID,0,VALID,74.5059,VALID,595.144,VALID,25.5228,VALID,79,VALID,1.63681,
2007-10-29, 10:21:00,VALID,915.837,VALID,0,VALID,76.1208,VALID,553.151,VALID,25.5911,VALID,95,VALID,1.0691,
2007-10-29, 10:22:00,VALID,915.818,VALID,0,VALID,75.3502,VALID,576.041,VALID,25.7693,VALID,3,VALID,0.925586,
2007-10-29, 10:23:00,VALID,915.787,VALID,0,VALID,72.4993,VALID,467.533,VALID,25.9126,VALID,283,VALID,0.693274,
2007-10-29, 10:24:00,VALID,915.777,VALID,0,VALID,72.4573,VALID,501.24,VALID,25.9773,VALID,146,VALID,0.644717,
2007-10-29, 10:25:00,VALID,915.756,VALID,0,VALID,74.7208,VALID,744.219,VALID,25.9582,VALID,85,VALID,0.925223,
2007-10-29, 10:26:00,VALID,915.74,VALID,0,VALID,75.1073,VALID,653.168,VALID,26.0102,VALID,24,VALID,1.24782,
2007-10-29, 10:27:00,VALID,915.738,VALID,0,VALID,74.8581,VALID,598.999,VALID,26.1373,VALID,44,VALID,0.814406,
2007-10-29, 10:28:00,VALID,915.733,VALID,0,VALID,72.7498,VALID,493.582,VALID,26.2735,VALID,258,VALID,0.67702,
2007-10-29, 10:29:00,VALID,915.739,VALID,0,VALID,73.9731,VALID,466.565,VALID,26.3971,VALID,242,VALID,0.870427,
2007-10-29, 10:30:00,VALID,915.714,VALID,0,VALID,72.3034,VALID,473.595,VALID,26.3321,VALID,292,VALID,1.6448,
2007-10-29, 10:31:00,VALID,915.701,VALID,0,VALID,73.0931,VALID,485.329,VALID,26.0206,VALID,327,VALID,0.580078,
2007-10-29, 10:32:00,VALID,915.708,VALID,0,VALID,72.8133,VALID,481.559,VALID,25.9591,VALID,244,VALID,0.323475,
2007-10-29, 10:33:00,VALID,915.695,VALID,0,VALID,73.2368,VALID,451.605,VALID,25.9487,VALID,344,VALID,0.611662,
2007-10-29, 10:34:00,VALID,915.705,VALID,0,VALID,74.7881,VALID,438.87,VALID,25.9913,VALID,5,VALID,0.323742,
2007-10-29, 10:35:00,VALID,915.681,VALID,0,VALID,73.4784,VALID,432.128,VALID,26.0918,VALID,173,VALID,0.731105,
2007-10-29, 10:36:00,VALID,915.674,VALID,0,VALID,74.1155,VALID,422.823,VALID,26.0759,VALID,65,VALID,0.925409,